Wind_Speed
11 13 15 16 15 16 16 16 18 21 25 28 31 34 37 39 39 40 40 41 42 43 44 45 45 44 43 42 42 44 47 50 52 54 56 58 60 61 61 61 60 59 58 59
14 15 16 17 17 17 17 18 19 23 26 30 33 36 38 40 41 41 41 41 42 43 44 45 45 44 42 42 43 46 49 51 53 54 56 58 58 57 57 55 52 51 51 53
16 17 17 17 17 18 19 20 22 25 28 32 35 37 40 42 43 43 43 43 43 44 45 46 46 44 43 43 45 48 50 52 53 54 56 57 56 54 52 48 45 44 44 46
18 19 19 18 18 18 19 21 24 26 29 32 36 39 41 42 44 45 45 45 45 46 46 47 47 45 44 45 46 49 51 52 53 55 56 55 53 51 47 42 38 36 36 37
19 20 20 18 17 18 19 21 24 27 30 33 37 41 44 46 47 48 48 48 48 48 48 48 47 46 44 45 47 49 51 52 53 54 54 53 50 47 43 37 33 30 29 30
19 20 19 20 18 19 21 23 25 27 30 34 39 41 44 47 48 49 49 50 49 49 49 48 47 46 44 45 47 49 50 50 52 53 52 50 48 44 38 33 28 25 22 23
19 19 21 20 20 21 23 26 27 29 32 36 41 44 46 47 48 50 50 51 50 50 49 49 48 46 44 45 47 48 49 49 50 51 50 48 46 41 35 30 25 21 17 17
17 19 21 20 21 22 24 26 28 30 33 37 41 45 48 49 50 50 51 51 51 49 49 49 48 46 44 44 46 47 47 48 49 49 47 45 43 39 34 29 24 19 14 13
19 20 21 22 22 23 25 27 29 31 34 38 42 46 49 50 50 50 51 51 50 49 48 48 48 46 44 44 45 45 46 46 47 47 45 43 40 37 33 28 23 17 11 8
20 22 23 23 24 25 26 28 29 32 35 39 43 47 49 50 49 49 51 51 49 48 47 47 47 46 44 43 44 44 45 45 45 45 43 41 39 36 32 27 22 16 9 6
21 23 24 25 26 26 28 29 31 34 37 40 44 48 50 50 49 49 51 50 48 47 47 47 47 45 43 42 43 43 43 43 44 44 42 39 37 34 31 27 22 16 9 4
22 23 24 26 26 27 28 30 32 36 39 42 46 49 50 50 49 50 50 49 47 46 46 46 46 44 42 41 42 42 42 41 42 42 40 37 35 32 30 27 22 16 10 2
22 23 25 26 27 28 29 31 34 38 41 45 48 50 50 49 49 49 49 48 46 46 45 45 45 44 41 40 40 40 40 40 40 41 40 36 33 30 27 25 22 17 12 5
22 23 25 27 29 30 32 34 37 41 44 46 49 50 48 48 49 49 48 48 46 45 45 45 45 43 41 39 38 38 38 38 39 39 37 35 32 29 26 23 21 17 13 8
23 25 28 30 31 33 35 38 41 43 46 48 49 48 47 47 48 48 47 47 46 45 44 44 44 43 40 37 36 36 37 37 37 37 35 33 31 27 24 21 19 16 13 10
27 29 32 33 35 36 39 41 43 45 47 48 48 46 44 45 47 47 46 46 45 44 44 43 43 42 39 36 34 34 35 36 36 35 33 32 29 26 22 18 16 15 12 10
32 34 35 36 37 39 41 42 43 45 46 46 45 43 42 43 45 45 44 44 44 44 44 43 42 41 38 35 33 32 33 34 34 33 32 30 28 25 21 17 14 13 11 9
37 38 38 38 39 40 41 41 41 43 44 44 42 41 41 42 44 43 42 42 43 43 43 42 41 40 37 34 32 31 31 32 33 32 31 29 27 24 20 17 14 11 10 8
39 38 39 39 40 41 40 39 39 40 41 41 41 41 41 42 43 42 41 40 40 41 42 41 40 39 36 33 30 29 28 30 31 31 30 28 26 24 21 17 14 11 9 8
43 42 41 41 41 40 39 39 39 39 39 40 41 41 41 41 41 40 38 38 38 39 40 40 39 38 35 32 29 27 26 27 29 30 29 27 25 24 22 19 15 12 9 7
45 45 44 43 41 39 39 39 40 39 39 41 41 41 41 40 39 38 35 35 36 38 38 39 38 37 34 30 27 25 24 24 26 27 27 26 25 24 22 20 17 14 12 10
47 46 45 44 41 38 38 39 39 39 40 41 42 41 40 39 37 35 33 33 34 35 36 37 37 35 33 29 25 23 22 22 22 24 25 25 25 23 22 20 18 16 15 13
50 48 46 42 40 39 38 38 39 40 41 42 42 41 40 38 36 34 32 31 32 33 34 35 35 34 32 28 24 21 19 19 19 20 21 22 23 22 22 20 19 18 17 16
53 51 46 42 41 40 38 40 41 41 42 43 42 41 40 38 35 33 31 30 30 31 32 33 33 33 31 27 24 20 17 16 16 17 18 19 20 20 20 19 17 17 18 17
55 52 48 45 45 44 43 43 44 44 44 43 40 39 39 37 35 33 31 30 29 30 30 31 31 31 30 26 23 19 16 14 13 13 14 15 17 18 18 18 17 16 16 16
57 54 52 50 48 47 46 46 46 45 43 41 39 39 39 37 35 32 31 29 29 28 28 29 30 30 28 25 22 18 15 12 11 10 10 11 12 14 14 15 15 14 14 14
58 56 55 53 50 49 47 46 44 42 40 40 40 39 38 37 35 33 31 29 28 27 27 27 28 28 27 24 21 18 15 12 10 8 7 7 8 9 10 11 12 13 12 12
Wind_Direction
330 332 331 330 331 330 328 331 336 337 338 339 339 339 339 338 335 333 332 331 330 329 330 329 327 324 320 317 315 315 315 316 315 314 312 309 305 301 297 292 285 277 268 260
331 331 326 323 321 321 321 327 333 335 336 339 340 338 338 338 337 335 334 332 331 331 331 330 328 326 322 320 319 320 321 321 321 319 317 314 311 308 302 296 289 279 269 260
326 325 322 315 316 318 320 324 331 333 335 338 341 339 339 339 338 336 335 334 333 332 332 332 330 328 325 324 324 325 326 326 325 324 322 320 317 314 309 302 294 284 273 260
319 318 318 312 312 313 317 323 329 332 334 338 340 338 339 339 338 338 336 335 334 333 334 334 333 330 328 328 328 329 329 330 329 328 327 326 323 319 316 308 299 289 275 262
314 316 314 309 309 310 316 323 326 330 334 337 340 339 338 340 340 340 339 337 336 335 335 335 334 332 330 330 331 332 332 332 333 333 333 331 329 326 322 315 305 295 278 260
312 313 311 310 313 312 317 322 327 331 335 338 340 339 338 339 339 340 339 338 337 335 335 336 335 333 331 332 333 334 335 335 336 337 337 336 335 333 331 325 316 304 284 259
312 313 309 311 312 315 321 325 329 333 337 339 339 339 339 339 339 340 340 339 338 336 336 337 336 335 333 333 335 336 337 338 339 340 340 340 340 340 338 335 327 315 294 259
310 309 306 311 312 317 321 326 329 333 337 338 338 337 338 338 339 340 340 339 338 337 336 337 337 336 335 335 336 338 339 341 342 343 344 344 345 344 343 341 335 325 307 261
308 307 308 311 314 318 322 326 329 332 335 337 336 336 337 337 338 339 340 340 339 338 337 337 338 337 336 337 338 340 341 343 345 346 347 348 349 349 348 345 342 334 316 261
305 306 309 312 316 320 323 325 327 329 332 334 334 334 336 337 337 338 339 340 339 339 338 338 339 338 337 338 339 341 343 345 347 348 349 351 352 353 353 352 349 342 326 269
303 305 309 313 317 320 322 323 324 326 329 331 332 334 336 337 338 339 340 341 341 340 339 339 340 339 338 338 340 342 345 347 348 350 351 352 353 356 357 357 356 354 344 258
302 304 309 313 318 321 321 321 321 323 326 329 331 334 336 338 338 340 341 343 343 342 340 340 341 340 339 339 341 343 346 348 351 353 354 354 355 357 0 3 4 5 5 319
300 304 309 314 318 320 320 319 319 322 325 328 331 334 336 338 339 341 342 343 344 343 341 340 341 341 340 340 342 344 347 350 353 355 356 356 357 359 2 6 9 11 15 25
301 305 309 313 317 319 319 318 319 321 324 327 330 333 335 338 341 342 343 344 345 344 342 342 342 342 341 341 342 345 349 351 354 356 358 358 359 0 4 9 14 17 23 37
305 308 310 313 315 316 316 317 318 320 324 326 329 331 333 337 340 342 343 344 345 345 344 343 343 343 342 342 343 346 350 353 356 358 0 2 2 2 5 12 18 23 29 40
306 308 309 311 312 313 313 315 316 319 322 325 326 328 331 335 339 342 343 344 346 346 345 344 344 344 344 343 344 347 351 355 357 360 3 4 5 6 7 12 18 24 33 43
304 305 306 307 308 309 310 312 314 317 320 322 323 325 329 333 338 340 342 344 346 347 347 346 345 345 345 345 345 348 352 356 358 1 4 7 8 10 12 14 18 24 34 47
301 303 304 305 305 305 307 309 312 314 317 319 322 324 326 331 335 338 341 343 345 347 348 347 346 347 347 346 346 349 353 358 1 4 6 9 11 13 17 20 24 29 36 51
295 297 298 299 300 302 304 306 308 311 313 316 319 321 324 327 331 335 338 341 344 347 348 347 347 348 348 347 347 349 353 358 2 6 8 11 14 16 19 23 29 38 48 59
290 292 293 295 297 299 300 301 303 307 310 313 316 319 321 324 327 331 334 338 343 346 348 348 347 347 348 348 348 350 353 357 2 7 11 13 16 19 22 27 33 40 50 60
287 290 292 293 294 294 294 295 298 303 306 308 310 314 318 322 324 327 331 335 341 345 347 348 347 346 348 349 348 349 352 356 2 7 12 16 18 20 24 30 38 46 54 61
286 287 290 291 291 291 289 289 293 298 302 303 306 311 314 318 321 324 327 332 337 341 344 346 346 345 347 348 347 347 350 355 1 7 13 17 20 23 27 34 42 50 57 63
285 287 288 287 288 289 286 284 287 292 297 301 305 308 311 314 316 319 323 328 332 337 341 344 344 344 344 346 346 345 347 352 359 6 12 16 21 26 30 37 45 54 62 68
283 285 284 281 280 280 278 280 284 287 294 300 302 304 306 308 310 313 317 322 327 331 336 340 341 341 341 343 344 342 342 347 355 3 11 17 22 28 33 40 48 57 65 69
281 281 279 274 273 274 273 273 278 283 290 294 296 299 301 303 305 308 312 317 321 326 331 335 337 337 337 338 340 339 336 339 347 356 6 15 21 28 34 42 51 60 68 73
278 278 278 277 275 272 271 273 277 282 285 285 287 290 294 297 300 303 307 311 315 319 326 331 334 334 333 333 334 335 331 328 332 342 353 6 16 25 34 42 50 60 70 77
275 275 275 276 276 275 275 275 277 278 279 280 281 283 286 290 294 298 303 307 310 313 321 327 330 332 330 328 327 329 326 317 315 319 332 350 7 21 32 42 52 63 72 80
Height
5856 5854 5851 5849 5847 5845 5842 5838 5834 5829 5824 5819 5813 5806 5800 5793 5786 5778 5771 5763 5754 5746 5738 5729 5719 5711 5703 5695 5688 5680 5671 5662 5653 5643 5632 5621 5610 5600 5590 5581 5574 5570 5569 5570
5854 5851 5849 5846 5844 5841 5838 5834 5830 5825 5821 5815 5809 5802 5795 5788 5780 5773 5765 5757 5748 5740 5730 5721 5711 5702 5693 5685 5677 5668 5658 5648 5637 5626 5615 5603 5590 5578 5567 5557 5549 5544 5543 5545
5851 5848 5846 5843 5841 5837 5834 5830 5826 5821 5817 5810 5804 5797 5791 5783 5775 5767 5759 5750 5741 5732 5722 5712 5702 5692 5683 5674 5665 5656 5645 5634 5623 5611 5599 5585 5572 5559 5547 5536 5529 5523 5521 5522
5847 5846 5843 5841 5837 5834 5830 5826 5821 5817 5812 5806 5800 5792 5785 5778 5769 5761 5752 5743 5733 5724 5714 5704 5693 5683 5673 5664 5654 5644 5633 5622 5610 5597 5584 5570 5556 5543 5530 5520 5512 5507 5504 5504
5844 5841 5839 5836 5833 5829 5826 5823 5818 5813 5808 5802 5795 5787 5778 5771 5762 5754 5745 5735 5725 5715 5705 5695 5685 5674 5664 5655 5645 5634 5623 5611 5598 5585 5572 5558 5544 5530 5518 5508 5500 5494 5491 5492
5840 5837 5834 5832 5828 5824 5823 5818 5814 5809 5803 5796 5790 5784 5776 5766 5757 5748 5738 5728 5718 5708 5698 5688 5677 5667 5656 5647 5637 5626 5614 5602 5589 5576 5562 5548 5534 5521 5509 5499 5491 5486 5482 5482
5835 5832 5830 5827 5823 5821 5818 5814 5808 5803 5797 5790 5783 5777 5769 5761 5752 5742 5732 5722 5712 5701 5691 5681 5671 5660 5649 5640 5629 5618 5607 5594 5582 5568 5555 5541 5528 5515 5504 5495 5487 5481 5477 5477
5832 5829 5827 5822 5819 5817 5813 5807 5803 5797 5792 5785 5778 5771 5763 5754 5745 5735 5726 5715 5705 5695 5684 5674 5664 5653 5643 5633 5623 5612 5600 5588 5576 5563 5549 5536 5524 5512 5501 5492 5485 5479 5475 5475
5828 5826 5821 5818 5815 5812 5807 5803 5798 5793 5787 5781 5774 5766 5758 5749 5739 5729 5719 5709 5699 5689 5678 5668 5657 5647 5637 5627 5617 5606 5595 5583 5571 5558 5545 5533 5522 5510 5500 5491 5484 5478 5475 5474
5822 5819 5816 5813 5810 5806 5802 5798 5793 5788 5782 5775 5769 5761 5752 5743 5733 5724 5714 5703 5693 5683 5673 5662 5651 5641 5631 5621 5612 5601 5590 5579 5567 5555 5543 5531 5520 5510 5500 5492 5484 5479 5475 5474
5817 5814 5811 5808 5805 5801 5797 5792 5787 5782 5776 5769 5762 5754 5745 5736 5727 5718 5708 5697 5687 5677 5667 5656 5646 5635 5625 5616 5607 5597 5586 5575 5564 5552 5541 5530 5520 5510 5501 5493 5485 5480 5476 5475
5812 5809 5806 5803 5799 5795 5791 5787 5781 5776 5770 5763 5756 5748 5739 5730 5721 5712 5702 5692 5682 5671 5661 5651 5641 5631 5621 5612 5603 5593 5583 5572 5562 5551 5540 5530 5521 5512 5503 5495 5488 5483 5479 5477
5805 5803 5800 5797 5793 5789 5785 5780 5775 5769 5763 5756 5749 5741 5733 5724 5716 5707 5697 5687 5677 5667 5656 5646 5636 5626 5617 5608 5599 5590 5580 5570 5560 5550 5540 5530 5522 5513 5506 5498 5492 5486 5483 5480
5799 5796 5794 5790 5786 5782 5778 5773 5768 5762 5756 5749 5743 5735 5727 5719 5710 5701 5692 5682 5672 5662 5652 5642 5632 5623 5613 5605 5597 5588 5579 5569 5559 5550 5540 5532 5523 5516 5509 5502 5496 5491 5487 5485
5792 5789 5786 5783 5779 5775 5771 5766 5760 5755 5749 5742 5736 5728 5721 5713 5705 5696 5687 5678 5668 5658 5648 5638 5628 5619 5610 5602 5594 5586 5578 5569 5559 5550 5541 5533 5525 5518 5512 5506 5501 5496 5493 5490
5784 5781 5778 5774 5771 5767 5763 5758 5752 5747 5741 5735 5728 5722 5715 5707 5699 5691 5682 5673 5664 5654 5644 5634 5625 5617 5608 5600 5593 5585 5577 5568 5559 5551 5542 5535 5527 5521 5515 5509 5505 5501 5498 5496
5776 5773 5770 5766 5763 5758 5754 5749 5744 5739 5733 5728 5722 5715 5709 5702 5694 5686 5678 5669 5660 5650 5641 5632 5623 5614 5606 5598 5591 5584 5576 5568 5560 5552 5544 5536 5530 5523 5518 5513 5509 5505 5503 5500
5768 5765 5761 5758 5754 5749 5745 5741 5736 5731 5726 5720 5715 5709 5703 5696 5690 5682 5674 5665 5656 5647 5638 5629 5621 5612 5604 5597 5590 5583 5576 5569 5561 5553 5546 5539 5532 5526 5520 5516 5512 5509 5506 5504
5758 5756 5752 5748 5743 5739 5736 5732 5728 5723 5718 5713 5708 5702 5696 5690 5684 5677 5670 5662 5653 5644 5635 5626 5618 5610 5603 5596 5589 5583 5577 5570 5563 5555 5548 5541 5535 5529 5524 5519 5515 5512 5509 5507
5746 5744 5741 5737 5733 5730 5726 5722 5719 5715 5710 5705 5700 5695 5690 5684 5678 5672 5665 5658 5650 5642 5633 5625 5617 5609 5602 5595 5589 5583 5577 5571 5565 5558 5551 5544 5538 5533 5527 5522 5518 5515 5512 5511
5734 5731 5729 5726 5723 5719 5716 5713 5709 5705 5701 5696 5692 5687 5682 5677 5671 5666 5660 5653 5646 5638 5630 5623 5615 5608 5601 5594 5588 5583 5578 5572 5567 5560 5554 5548 5542 5537 5531 5526 5522 5519 5516 5514
5720 5718 5716 5713 5711 5708 5705 5702 5699 5694 5691 5687 5683 5679 5674 5669 5664 5659 5654 5648 5642 5635 5628 5620 5613 5606 5600 5593 5588 5583 5578 5574 5568 5563 5557 5552 5546 5541 5536 5531 5527 5523 5521 5518
5705 5703 5702 5700 5697 5696 5694 5691 5687 5684 5680 5677 5673 5670 5666 5662 5657 5653 5648 5643 5637 5631 5624 5618 5611 5605 5599 5593 5587 5583 5578 5574 5570 5565 5561 5556 5551 5546 5541 5536 5533 5529 5526 5524
5689 5688 5687 5686 5684 5683 5681 5678 5675 5672 5669 5666 5663 5660 5657 5653 5650 5645 5641 5637 5632 5626 5621 5614 5608 5602 5597 5592 5586 5582 5578 5575 5571 5567 5563 5559 5555 5551 5547 5542 5539 5536 5533 5531
5672 5671 5671 5671 5670 5668 5667 5664 5662 5660 5657 5655 5653 5650 5647 5644 5641 5638 5634 5630 5626 5621 5616 5611 5605 5599 5594 5589 5585 5581 5577 5574 5572 5569 5566 5562 5559 5555 5552 5548 5545 5543 5540 5539
5653 5653 5653 5652 5652 5652 5651 5649 5648 5647 5645 5643 5641 5639 5637 5634 5632 5629 5626 5623 5619 5616 5611 5606 5601 5596 5591 5587 5583 5579 5576 5573 5571 5569 5567 5564 5562 5559 5556 5554 5551 5549 5547 5545
5635 5635 5634 5634 5635 5635 5635 5635 5634 5634 5632 5630 5629 5628 5626 5624 5622 5620 5618 5616 5613 5609 5605 5601 5596 5592 5587 5583 5580 5577 5574 5572 5570 5568 5567 5565 5563 5562 5560 5558 5556 5554 5552 5551